[[{"header":{"parameterUnit":"m.s-1","parameterCategory":2,"la1":30.2991,"la2":30.254,"lo1":-89.0895,"lo2":-89.0444,"dy":0.0017,"dx":0.0017,"nx":28,"ny":28,"refTime":"2023-09-23T03:00:00:Z","depth":"0","parameterNumber":2,"parameterNumberName":"U-component_of_CURRENTS"},"data":[0,0,0,0,0,0,0,0,0,0,0,0,0,0,0,0,0,0,0,0,0,0,0,0,0,0,0,0,0,0,0,0,0,0,0,0,0,0,0,0,0,0,0,0,0,0,0,0,0,0,0,0,0,0,0,0,0,0,0.1683,0.1685,0,0.1779,0.178,0.1781,0.1814,0.1814,0.1814,0.1814,0.1894,0.1896,0.1898,0,0,0,0,0,0,0,0,0,0,0,0,0,0.1588,0.1589,0.1683,0.1685,0.1686,0.1779,0.178,0.1781,0.1815,0.1814,0.1814,0.1814,0.1893,0.1896,0.1899,0,0,0,0,0,0,0,0,0,0,0,0,0,0.165,0.1589,0.1683,0.1714,0.1718,0.1779,0.178,0.1782,0.1815,0.1814,0.1814,0.1813,0.1892,0.1895,0.1899,0.1929,0,0,0.191,0.1911,0,0,0,0,0,0,0,0,0.1646,0.1653,0.1709,0.1712,0.1717,0.1785,0.1776,0.1831,0.1815,0.1777,0.1814,0.1813,0.1857,0.1863,0.1881,0.1933,0.1936,0.191,0.1912,0.1914,0.1915,0,0,0,0,0,0,0,0.1642,0.1649,0.172,0.171,0.1715,0.1744,0.1751,0.1787,0.1817,0.178,0.1783,0.1795,0.1859,0.1878,0.1883,0.1938,0.191,0.1913,0.1916,0.1917,0.2046,0.2047,0,0,0,0,0,0,0.1629,0.1645,0.1717,0.1723,0.1681,0.1746,0.1754,0.1763,0.1817,0.1825,0.1796,0.1797,0.1872,0.1879,0.1886,0.1973,0.1914,0.1917,0.1919,0.2045,0.2046,0.2048,0,0,0,0,0,0,0.1627,0.1635,0.1713,0.1687,0.1699,0.1747,0.1757,0.1765,0.1788,0.1829,0.1837,0.1811,0.1872,0.1881,0.1943,0.1974,0.1919,0.1922,0.2043,0.2045,0.2047,0.2116,0,0,0,0,0,0,0.1624,0.1633,0.1637,0.1686,0.17,0.1757,0.1758,0.1767,0.1797,0.1799,0.1845,0.1852,0.1872,0.1937,0.1946,0.1978,0.1925,0.2042,0.2044,0.2046,0.2112,0.212,0.2127,0,0,0,0,0,0.162,0.1629,0.1637,0.1646,0.1704,0.1758,0.1769,0.18,0.1798,0.1817,0.1858,0.1851,0.1958,0.1942,0.1952,0.1986,0.204,0.2043,0.2046,0.2109,0.2119,0.2127,0,0,0,0,0,0,0.1587,0.1635,0.1644,0.1666,0.1711,0.1764,0.1783,0.1803,0.185,0.1851,0.1881,0.1892,0.1966,0.1959,0.194,0.2027,0.1992,0.1997,0.2037,0.2046,0.2053,0.2057,0.1928,0,0,0,0,0,0.1582,0.1601,0.1652,0.1671,0.169,0.1735,0.176,0.1786,0.1833,0.1852,0.1895,0.1932,0.1985,0.2,0.205,0.2092,0.2067,0.2113,0.2121,0.2127,0.2136,0.2158,0.2168,0.2057,0.2057,0.2057,0,0,0.1573,0.1603,0.1613,0.1666,0.1698,0.1745,0.1749,0.1792,0.1841,0.1854,0.1934,0.1976,0.2008,0.2076,0.2102,0.207,0.2135,0.2131,0.2137,0.2142,0.2162,0.2173,0.2182,0.2059,0.2059,0.2058,0,0,0.1574,0.1592,0.1613,0.1653,0.1708,0.1749,0.1762,0.1829,0.1865,0.1943,0.1975,0.2041,0.21,0.2148,0.2171,0.2242,0.2192,0.2237,0.2262,0.2283,0.2293,0.2301,0.2235,0.2237,0.2219,0.2219,0.2219,0,0.1564,0.1594,0.1629,0.1666,0.1702,0.1751,0.1792,0.1846,0.1933,0.197,0.1974,0.2105,0.2143,0.2226,0.2257,0.2264,0.2227,0.2228,0.2294,0.2301,0.2309,0.224,0.2241,0.2222,0.2222,0.2222,0.2221,0,0.1586,0.1614,0.1631,0.1696,0.1745,0.1785,0.1864,0.1924,0.1972,0.2026,0.2129,0.2195,0.2259,0.2285,0.2298,0.2369,0.2307,0.2319,0.2271,0.2324,0.2247,0.2247,0.2228,0.2226,0.2225,0.2224,0,0,0.1555,0.1629,0.1636,0.1669,0.1761,0.1805,0.1894,0.1987,0.2037,0.213,0.2195,0.2316,0.2337,0.2365,0.239,0.2414,0.2434,0.238,0.2379,0.2313,0.2405,0.216,0.2135,0.245,0.2452,0.2453,0.2312,0,0.1562,0.162,0.1666,0.1739,0.1779,0.1856,0.1936,0.2029,0.21,0.218,0.2258,0.2331,0.2366,0.2387,0.2432,0.2459,0.2444,0.2466,0.2365,0.236,0.2138,0.2133,0.1992,0.1839,0.2312,0.2312,0.2312,0,0.1573,0.1613,0.1668,0.1762,0.1787,0.184,0.1958,0.2034,0.2154,0.2205,0.2288,0.2337,0.2423,0.2424,0.2477,0.2481,0.2443,0.244,0.2434,0.2187,0.2117,0.1873,0.182,0.1759,0.2311,0.2311,0.2311,0,0.154,0.162,0.166,0.1691,0.1805,0.1846,0.1911,0.2033,0.2093,0.2199,0.2233,0.2345,0.2377,0.2409,0.2393,0.244,0.2385,0.2448,0.2176,0.2155,0.2005,0.1967,0.1884,0.2443,0.2443,0.2444,0.2444,0,0.1535,0.1571,0.1638,0.1663,0.1724,0.181,0.188,0.1965,0.2062,0.2115,0.2222,0.2254,0.2377,0.2359,0.2364,0.2224,0.2349,0.2161,0.2111,0.2014,0.1981,0.1894,0.1897,0.2438,0.2439,0.2441,0.2441,0,0.1502,0.1543,0.1592,0.1681,0.1706,0.1747,0.1843,0.1895,0.1984,0.2045,0.207,0.2183,0.2149,0.2169,0.2177,0.213,0.1954,0.1954,0.1773,0.1703,0.1412,0.1422,0.1232,0.1211,0.1674,0.1667,0.1662,0,0.1489,0.1506,0.1581,0.1601,0.1633,0.1693,0.1741,0.1847,0.1894,0.1981,0.2002,0.1983,0.1954,0.1822,0.173,0.1601,0.164,0.1369,0.1458,0.1338,0.1318,0.1346,0.1351,0.1279,0.1271,0.1264,0.1259,0,0.1466,0.1486,0.1526,0.1554,0.1588,0.1639,0.17,0.1719,0.1825,0.1852,0.184,0.1803,0.1644,0.1454,0.1243,0.1177,0.1266,0.1217,0.1196,0.1058,0.0989,0.0962,0.1382,0.1198,0.1204,0.1208,0.1212,0.1214,0.1441,0.1452,0.1486,0.1507,0.1541,0.1561,0.1567,0.161,0.163,0.1614,0.1646,0.1495,0.1262,0.0961,0.087,0.0595,0.077,0.0576,0.061,0.0658,0.0601,0.0804,0.05,0.0502,0.0504,0.0506,0.0507,0,0.1396,0.1409,0.1434,0.1449,0.1447,0.1494,0.1525,0.15,0.1452,0.1389,0.1325,0.0978,0.0703,0.0501,0.0161,0.0042,0.0144,0.002,0.0122,0.0176,0.0431,0.0377,-0.0093,-0.0093,-0.0093,-0.0092,-0.0092,-0.0092,0.1377,0.1369,0.1373,0.134,0.1349,0.1321,0.1315,0.1266,0.1201,0.0963,0.0733,0.062,0.0326,-0.0074,-0.0334,-0.0334,-0.025,-0.0353,-0.0229,0.0024,0.0084,0.0142,0.0094,-0.0427,-0.0427,-0.0475,-0.0476,-0.0477]},{"header":{"parameterUnit":"m.s-1","parameterCategory":2,"la1":30.2991,"la2":30.254,"lo1":-89.0895,"lo2":-89.0444,"dy":0.0017,"dx":0.0017,"nx":28,"ny":28,"refTime":"2023-09-23T03:00:00:Z","depth":"0","parameterNumber":3,"parameterNumberName":"V-component_of_CURRENTS"},"data":[0,0,0,0,0,0,0,0,0,0,0,0,0,0,0,0,0,0,0,0,0,0,0,0,0,0,0,0,0,0,0,0,0,0,0,0,0,0,0,0,0,0,0,0,0,0,0,0,0,0,0,0,0,0,0,0,0,0,0.032,0.032,0,0.0342,0.0342,0.0342,0.0342,0.0341,0.0341,0.0341,0.0347,0.0347,0.0347,0,0,0,0,0,0,0,0,0,0,0,0,0,0.027,0.0271,0.032,0.032,0.0321,0.0342,0.0342,0.0342,0.0342,0.0341,0.0341,0.0341,0.0346,0.0347,0.0347,0,0,0,0,0,0,0,0,0,0,0,0,0,0.029,0.0271,0.032,0.0325,0.0325,0.0342,0.0342,0.0342,0.0342,0.0341,0.0341,0.0341,0.0346,0.0347,0.0347,0.0353,0,0,0.0348,0.0348,0,0,0,0,0,0,0,0,0.0289,0.0292,0.0323,0.0324,0.0325,0.034,0.0326,0.0345,0.0342,0.0333,0.0341,0.0341,0.0344,0.0345,0.0347,0.0353,0.0353,0.0348,0.0348,0.0349,0.0349,0,0,0,0,0,0,0,0.0288,0.0291,0.0327,0.0324,0.0325,0.0323,0.0326,0.033,0.0338,0.0334,0.0335,0.034,0.0344,0.0346,0.0347,0.0353,0.0348,0.0349,0.0349,0.0349,0.0363,0.0363,0,0,0,0,0,0,0.029,0.029,0.0326,0.0327,0.0308,0.0324,0.0327,0.0334,0.0338,0.0339,0.034,0.034,0.0346,0.0347,0.0347,0.0364,0.0349,0.0349,0.0349,0.0363,0.0363,0.0363,0,0,0,0,0,0,0.0288,0.0293,0.0325,0.031,0.0314,0.0326,0.0333,0.0335,0.0339,0.0343,0.0344,0.0344,0.0346,0.0347,0.0344,0.0364,0.0349,0.035,0.0363,0.0363,0.0363,0.0391,0,0,0,0,0,0,0.0287,0.0292,0.0297,0.0311,0.0316,0.034,0.0334,0.0335,0.0344,0.0344,0.0347,0.0347,0.0346,0.0343,0.0344,0.0364,0.035,0.0363,0.0363,0.0363,0.039,0.0392,0.0394,0,0,0,0,0,0.0285,0.0294,0.0297,0.0301,0.0322,0.034,0.0342,0.0348,0.0344,0.035,0.0342,0.0347,0.0346,0.0343,0.0344,0.0365,0.0363,0.0363,0.0363,0.0389,0.0392,0.0394,0,0,0,0,0,0,0.0274,0.0295,0.0299,0.0313,0.0328,0.0341,0.0348,0.035,0.0349,0.0346,0.0344,0.0344,0.035,0.0349,0.0346,0.0368,0.0357,0.0358,0.0377,0.0379,0.0382,0.042,0.035,0,0,0,0,0,0.0275,0.0288,0.0306,0.0318,0.0326,0.0337,0.0344,0.0348,0.0352,0.0351,0.0353,0.0352,0.0353,0.0358,0.0357,0.0369,0.0385,0.0383,0.0385,0.0387,0.0419,0.0472,0.0483,0.0365,0.0365,0.0365,0,0,0.0274,0.0288,0.0295,0.0317,0.0328,0.0346,0.034,0.0355,0.0368,0.0352,0.0364,0.0358,0.0355,0.0366,0.037,0.0368,0.0417,0.0388,0.039,0.0421,0.0474,0.0486,0.0497,0.0365,0.0365,0.0365,0,0,0.0283,0.0292,0.0308,0.0322,0.0343,0.0351,0.0357,0.0372,0.0376,0.0384,0.0375,0.0387,0.0383,0.0397,0.04,0.0416,0.0423,0.0405,0.0456,0.0506,0.0517,0.0527,0.0514,0.0523,0.0411,0.0411,0.0411,0,0.0282,0.0306,0.0315,0.0336,0.0351,0.0356,0.0377,0.0384,0.0394,0.0411,0.0391,0.042,0.0408,0.0446,0.0444,0.0427,0.0433,0.0445,0.0512,0.0523,0.0533,0.0517,0.0527,0.0413,0.0413,0.0412,0.0412,0,0.0307,0.0325,0.0337,0.0366,0.0381,0.04,0.0414,0.0428,0.0431,0.0448,0.0482,0.0474,0.0504,0.049,0.0469,0.0533,0.0502,0.0506,0.0512,0.0547,0.0526,0.0536,0.0415,0.0414,0.0414,0.0413,0,0,0.0308,0.0347,0.0352,0.0374,0.0399,0.0418,0.0441,0.0478,0.0517,0.0523,0.0583,0.0575,0.0591,0.0596,0.0581,0.0617,0.0659,0.0592,0.0594,0.0588,0.0729,0.07,0.0707,0.0678,0.0681,0.0684,0.0668,0,0.0328,0.0371,0.0384,0.0426,0.045,0.0466,0.0496,0.0529,0.0555,0.0612,0.0629,0.067,0.0625,0.0645,0.0677,0.0679,0.0694,0.0661,0.0688,0.0688,0.067,0.0723,0.0746,0.0736,0.0677,0.0679,0.068,0,0.0352,0.0379,0.042,0.047,0.0484,0.0508,0.0573,0.0601,0.0673,0.0698,0.0755,0.0773,0.0826,0.0783,0.0825,0.0805,0.0773,0.0761,0.0761,0.0746,0.0682,0.0701,0.0756,0.0819,0.0695,0.0693,0.0692,0,0.0358,0.0407,0.0441,0.0457,0.0511,0.0537,0.0568,0.0633,0.0679,0.0768,0.0821,0.0882,0.0923,0.0929,0.089,0.087,0.0925,0.0894,0.0828,0.0822,0.0858,0.0851,0.0999,0.0927,0.0927,0.0927,0.0927,0,0.0379,0.0409,0.0449,0.0471,0.0528,0.0556,0.063,0.0671,0.0755,0.0833,0.0873,0.0948,0.0969,0.0994,0.0942,0.092,0.0966,0.0861,0.0844,0.0858,0.0852,0.0921,0.0937,0.0927,0.0927,0.0927,0.0927,0,0.0388,0.041,0.0457,0.0511,0.0533,0.0575,0.0658,0.072,0.0786,0.0894,0.0928,0.1018,0.1051,0.103,0.1037,0.0988,0.0992,0.0926,0.0907,0.0889,0.0893,0.0908,0.1012,0.1049,0.0875,0.0875,0.0875,0,0.0398,0.0421,0.0483,0.0518,0.0545,0.0608,0.0662,0.0731,0.0799,0.0933,0.0992,0.1061,0.1111,0.11,0.1045,0.0969,0.0981,0.0924,0.0906,0.0931,0.0935,0.0934,0.0959,0.0931,0.0932,0.0932,0.0932,0,0.0422,0.0441,0.0481,0.0546,0.06,0.0665,0.074,0.0795,0.0889,0.0974,0.1084,0.1134,0.1142,0.1124,0.103,0.0974,0.0999,0.0923,0.0994,0.1047,0.1017,0.1031,0.0851,0.0933,0.0933,0.0933,0.0933,0.0933,0.0441,0.0472,0.0521,0.0583,0.0643,0.0711,0.0763,0.0845,0.094,0.1059,0.1119,0.1173,0.1179,0.1077,0.1043,0.1017,0.0993,0.0999,0.1021,0.1022,0.1069,0.086,0.0899,0.0899,0.0898,0.0898,0.0898,0,0.0463,0.0498,0.0558,0.0625,0.068,0.0711,0.0811,0.0862,0.0957,0.1048,0.1129,0.1149,0.1166,0.1142,0.1122,0.113,0.1137,0.1138,0.1184,0.1209,0.1075,0.1091,0.1121,0.1121,0.1121,0.1121,0.1121,0.1121,0.0477,0.0526,0.0552,0.0635,0.0684,0.0749,0.0798,0.0881,0.0944,0.1023,0.1042,0.107,0.11,0.1225,0.129,0.1286,0.1359,0.132,0.1355,0.1298,0.1288,0.1278,0.1302,0.1376,0.1376,0.1502,0.1504,0.1505]}],[{"header":{"parameterUnit":"m.s-1","parameterCategory":2,"la1":30.2991,"la2":30.254,"lo1":-89.0895,"lo2":-89.0444,"dy":0.0017,"dx":0.0017,"nx":28,"ny":28,"refTime":"2023-09-23T03:00:00:Z","depth":"2","parameterNumber":2,"parameterNumberName":"U-component_of_CURRENTS"},"data":[0,0,0,0,0,0,0,0,0,0,0,0,0,0,0,0,0,0,0,0,0,0,0,0,0,0,0,0,0,0,0,0,0,0,0,0,0,0,0,0,0,0,0,0,0,0,0,0,0,0,0,0,0,0,0,0,0,0,0.1362,0.1362,0,0.1375,0.1375,0.1375,0.139,0.1391,0.1391,0.1392,0.1434,0.1435,0.1435,0,0,0,0,0,0,0,0,0,0,0,0,0,0.1351,0.135,0.1361,0.1362,0.1362,0.1375,0.1375,0.1375,0.139,0.1391,0.1391,0.1392,0.1434,0.1435,0.1435,0,0,0,0,0,0,0,0,0,0,0,0,0,0.1356,0.135,0.1361,0.1374,0.1375,0.1375,0.1375,0.1375,0.139,0.1391,0.1392,0.1392,0.1434,0.1435,0.1436,0.1426,0,0,0.1439,0.1439,0,0,0,0,0,0,0,0,0.1356,0.1356,0.1372,0.1373,0.1375,0.1384,0.1387,0.1394,0.139,0.1381,0.1392,0.1393,0.1422,0.1424,0.142,0.1428,0.143,0.1439,0.1439,0.144,0.144,0,0,0,0,0,0,0,0.1355,0.1355,0.1364,0.1372,0.1374,0.1379,0.1381,0.1388,0.1395,0.1382,0.1384,0.139,0.1422,0.1419,0.1421,0.1431,0.1439,0.144,0.144,0.144,0.1458,0.1458,0,0,0,0,0,0,0.1359,0.1355,0.1363,0.1364,0.137,0.1379,0.138,0.1378,0.1395,0.1398,0.1389,0.1391,0.1417,0.142,0.1423,0.1498,0.144,0.1441,0.1441,0.1458,0.1458,0.1458,0,0,0,0,0,0,0.1358,0.1359,0.1363,0.1363,0.1364,0.1379,0.1376,0.1378,0.139,0.14,0.1404,0.1402,0.1417,0.1421,0.145,0.1497,0.1441,0.1442,0.1458,0.1458,0.1458,0.1594,0,0,0,0,0,0,0.1357,0.1358,0.136,0.1363,0.1365,0.1372,0.1376,0.1378,0.1393,0.1395,0.1412,0.1416,0.1418,0.1449,0.1451,0.1497,0.1443,0.1459,0.1458,0.1458,0.159,0.1599,0.1606,0,0,0,0,0,0.1357,0.1361,0.136,0.1362,0.1366,0.1373,0.1374,0.1385,0.1393,0.1398,0.1418,0.1416,0.1448,0.145,0.1453,0.15,0.1459,0.1458,0.1458,0.1586,0.1597,0.1606,0,0,0,0,0,0,0.1359,0.1363,0.1362,0.1367,0.1373,0.1377,0.1386,0.1392,0.1409,0.1417,0.1426,0.1431,0.1476,0.1449,0.1451,0.1494,0.1448,0.1448,0.1544,0.1554,0.1562,0.1545,0.1443,0,0,0,0,0,0.1359,0.1361,0.1366,0.137,0.1374,0.1381,0.1387,0.1394,0.1408,0.1416,0.1436,0.1446,0.1471,0.1484,0.1492,0.1518,0.1488,0.1539,0.1547,0.1555,0.1537,0.1612,0.1628,0.1457,0.1457,0.1457,0,0,0.136,0.1364,0.1365,0.1371,0.1375,0.1395,0.1386,0.1399,0.1418,0.1419,0.1459,0.1483,0.1483,0.1525,0.154,0.1515,0.1568,0.1555,0.1562,0.1539,0.1614,0.1631,0.1647,0.1457,0.1457,0.1457,0,0,0.1366,0.1368,0.1372,0.1374,0.1386,0.1408,0.1416,0.1432,0.1439,0.1472,0.1491,0.1542,0.1556,0.1588,0.16,0.1646,0.1616,0.164,0.1674,0.1751,0.1767,0.1781,0.1694,0.1699,0.164,0.164,0.1641,0,0.1368,0.1374,0.1376,0.1379,0.1387,0.142,0.1431,0.1449,0.1476,0.1488,0.1494,0.1573,0.1588,0.166,0.1677,0.1674,0.1652,0.1655,0.1769,0.1782,0.1795,0.1702,0.1707,0.1647,0.1646,0.1645,0.1645,0,0.1371,0.138,0.1385,0.1409,0.142,0.1436,0.146,0.1485,0.1515,0.1542,0.1611,0.1653,0.1702,0.1722,0.1716,0.1809,0.1738,0.1787,0.1761,0.1822,0.1717,0.1719,0.1656,0.1654,0.1652,0.165,0,0,0.1359,0.1385,0.1384,0.1392,0.1432,0.144,0.148,0.1523,0.1564,0.1613,0.167,0.1741,0.1785,0.1796,0.1828,0.1881,0.1939,0.1866,0.1867,0.1803,0.1994,0.1805,0.1787,0.204,0.2042,0.2045,0.1861,0,0.1364,0.1375,0.1391,0.1422,0.1434,0.1462,0.1506,0.1545,0.1595,0.1665,0.1725,0.1797,0.181,0.1856,0.1929,0.1946,0.1961,0.1974,0.1919,0.1913,0.1766,0.1793,0.1665,0.1483,0.1862,0.1863,0.1863,0,0.1359,0.1368,0.1388,0.1425,0.1433,0.1475,0.1539,0.157,0.1666,0.1699,0.1795,0.1848,0.1927,0.195,0.2004,0.2018,0.2001,0.1999,0.1995,0.1774,0.1733,0.1494,0.1472,0.1866,0.1866,0.1865,0.1865,0,0.1339,0.1365,0.1386,0.139,0.1449,0.1469,0.1514,0.1593,0.1619,0.173,0.1771,0.1893,0.1944,0.1995,0.1972,0.201,0.1992,0.2053,0.1839,0.1819,0.1668,0.1631,0.2089,0.2089,0.209,0.209,0.2091,0,0.1335,0.1344,0.1385,0.139,0.1429,0.1462,0.1525,0.1573,0.1664,0.1709,0.1802,0.1838,0.1976,0.1979,0.1969,0.1863,0.199,0.1811,0.1787,0.1695,0.1664,0.1982,0.1973,0.2083,0.2085,0.2086,0.2087,0,0.1314,0.1338,0.1357,0.1408,0.1423,0.1447,0.151,0.1558,0.163,0.169,0.1719,0.1807,0.1785,0.1822,0.1858,0.1814,0.1756,0.1686,0.1471,0.1426,0.1513,0.1512,0.1426,0.1418,0.1412,0.1407,0.1402,0,0.1306,0.1319,0.1354,0.1363,0.1393,0.1431,0.1467,0.1541,0.1567,0.1634,0.1644,0.1659,0.1621,0.1526,0.1483,0.1371,0.153,0.1176,0.125,0.1472,0.1459,0.1468,0.1475,0.1061,0.1054,0.1049,0.1044,0,0.1292,0.1314,0.1324,0.1339,0.137,0.1391,0.1428,0.1428,0.1499,0.1528,0.1495,0.146,0.1356,0.1194,0.1062,0.1003,0.1192,0.105,0.1405,0.1247,0.1115,0.1106,0.1129,0.0994,0.0999,0.1002,0.1005,0.1007,0.1278,0.1279,0.1294,0.1299,0.1324,0.1317,0.1306,0.1317,0.1312,0.1282,0.1299,0.117,0.1124,0.0828,0.0727,0.0654,0.0775,0.0755,0.0779,0.0809,0.0799,0.0664,0.0445,0.0447,0.0448,0.045,0.0451,0,0.1242,0.124,0.1247,0.1235,0.1229,0.1274,0.1254,0.1203,0.1135,0.1086,0.102,0.0812,0.0609,0.0557,0.0353,0.0282,0.0364,0.0262,0.0406,0.0452,0.0495,0.0479,0.0035,0.0034,0.0033,0.0032,0,0,0.1221,0.1196,0.1185,0.1133,0.1138,0.1103,0.1076,0.1,0.0919,0.0774,0.0667,0.0605,0.0538,0.0321,0.0244,0.0116,0.0304,0.0082,0.0411,0.0632,0.0674,0.0757,0.0778,0,0,0,0,0]},{"header":{"parameterUnit":"m.s-1","parameterCategory":2,"la1":30.2991,"la2":30.254,"lo1":-89.0895,"lo2":-89.0444,"dy":0.0017,"dx":0.0017,"nx":28,"ny":28,"refTime":"2023-09-23T03:00:00:Z","depth":"2","parameterNumber":3,"parameterNumberName":"V-component_of_CURRENTS"},"data":[0,0,0,0,0,0,0,0,0,0,0,0,0,0,0,0,0,0,0,0,0,0,0,0,0,0,0,0,0,0,0,0,0,0,0,0,0,0,0,0,0,0,0,0,0,0,0,0,0,0,0,0,0,0,0,0,0,0,0.012,0.012,0,0.0119,0.0119,0.0118,0.0104,0.0104,0.0104,0.0104,0.0084,0.0083,0.0083,0,0,0,0,0,0,0,0,0,0,0,0,0,0.01,0.01,0.012,0.012,0.012,0.0119,0.0118,0.0118,0.0104,0.0104,0.0104,0.0103,0.0084,0.0083,0.0083,0,0,0,0,0,0,0,0,0,0,0,0,0,0.0102,0.01,0.012,0.0115,0.0115,0.0119,0.0118,0.0118,0.0104,0.0104,0.0104,0.0103,0.0084,0.0083,0.0083,0.0083,0,0,0.0081,0.0081,0,0,0,0,0,0,0,0,0.0102,0.0103,0.0115,0.0115,0.0115,0.0114,0.0104,0.0106,0.0104,0.0105,0.0104,0.0103,0.0094,0.0092,0.0089,0.0082,0.0081,0.0081,0.008,0.008,0.008,0,0,0,0,0,0,0,0.0102,0.0103,0.0117,0.0116,0.0116,0.011,0.011,0.0104,0.0098,0.0105,0.0105,0.0109,0.0093,0.009,0.0089,0.0081,0.0081,0.008,0.008,0.008,0.0076,0.0077,0,0,0,0,0,0,0.0108,0.0103,0.0117,0.0117,0.0111,0.011,0.011,0.0112,0.0099,0.0097,0.0109,0.0108,0.0091,0.0089,0.0088,0.0075,0.008,0.008,0.0079,0.0076,0.0076,0.0077,0,0,0,0,0,0,0.0108,0.0109,0.0117,0.0112,0.0113,0.0111,0.0113,0.0112,0.0111,0.0102,0.01,0.0109,0.0091,0.0089,0.0081,0.0075,0.0079,0.0079,0.0076,0.0076,0.0076,0.0058,0,0,0,0,0,0,0.0107,0.0109,0.0113,0.0112,0.0113,0.0118,0.0114,0.0112,0.0115,0.0113,0.0102,0.01,0.009,0.0082,0.008,0.0074,0.0078,0.0075,0.0076,0.0076,0.0058,0.0058,0.0058,0,0,0,0,0,0.0106,0.0113,0.0113,0.0115,0.0118,0.0118,0.0117,0.0114,0.0115,0.0112,0.0104,0.01,0.0084,0.0081,0.008,0.0073,0.0075,0.0076,0.0076,0.0059,0.0058,0.0058,0,0,0,0,0,0,0.0107,0.0113,0.0112,0.0121,0.0119,0.0117,0.012,0.0117,0.0109,0.011,0.0099,0.0096,0.0089,0.0088,0.0085,0.0076,0.0081,0.0081,0.0068,0.0068,0.0067,0.0102,0.0078,0,0,0,0,0,0.011,0.0115,0.0117,0.0123,0.0125,0.0123,0.0124,0.012,0.0116,0.0112,0.0099,0.0094,0.009,0.0085,0.008,0.0073,0.0107,0.0071,0.007,0.007,0.0098,0.0183,0.0193,0.0079,0.0079,0.0079,0,0,0.0112,0.0116,0.0119,0.0123,0.0124,0.0126,0.0122,0.0125,0.0122,0.0112,0.01,0.0091,0.009,0.0079,0.0076,0.0076,0.0105,0.007,0.007,0.01,0.0185,0.0196,0.0206,0.0079,0.0079,0.0079,0,0,0.0121,0.0123,0.0132,0.0133,0.0137,0.0132,0.0134,0.0127,0.012,0.0111,0.0103,0.01,0.0082,0.0082,0.0082,0.0082,0.0103,0.007,0.0092,0.0172,0.0183,0.0193,0.0187,0.0197,0.0068,0.0068,0.0068,0,0.0124,0.0136,0.0133,0.0142,0.0145,0.0136,0.0142,0.0134,0.0121,0.0126,0.0108,0.0109,0.0093,0.0106,0.0095,0.0082,0.0111,0.0087,0.0173,0.0185,0.0196,0.0188,0.0199,0.0067,0.0067,0.0067,0.0067,0,0.014,0.0149,0.0156,0.0161,0.0159,0.0164,0.0155,0.0149,0.0138,0.0136,0.0143,0.0124,0.0135,0.0114,0.01,0.0154,0.0139,0.0164,0.0177,0.0206,0.0195,0.0207,0.0066,0.0066,0.0066,0.0066,0,0,0.0146,0.0164,0.0166,0.0177,0.0171,0.0174,0.017,0.0175,0.0197,0.017,0.0207,0.0173,0.0176,0.0179,0.0158,0.0209,0.0265,0.0216,0.0221,0.0213,0.0393,0.0368,0.0378,0.0319,0.0323,0.0325,0.033,0,0.016,0.0184,0.0184,0.0199,0.021,0.0202,0.0203,0.0205,0.0209,0.0238,0.0232,0.0254,0.0196,0.0208,0.0246,0.0287,0.0309,0.0258,0.0366,0.0368,0.0347,0.0397,0.0391,0.0397,0.0343,0.0345,0.0346,0,0.0177,0.0191,0.0214,0.0231,0.0236,0.0242,0.0264,0.0265,0.0298,0.0306,0.0329,0.0336,0.0372,0.0342,0.0411,0.0388,0.0388,0.0405,0.0407,0.0415,0.037,0.0373,0.0422,0.0367,0.0366,0.0364,0.0363,0,0.0189,0.0212,0.0234,0.0239,0.0253,0.0267,0.0273,0.0295,0.0317,0.037,0.0413,0.0442,0.0486,0.0517,0.0509,0.0487,0.0602,0.0578,0.0535,0.0528,0.0563,0.0556,0.0644,0.0644,0.0644,0.0644,0.0644,0,0.0206,0.0224,0.0249,0.0263,0.0295,0.0293,0.0339,0.0349,0.0396,0.0454,0.0458,0.0519,0.0552,0.0599,0.057,0.0589,0.0645,0.056,0.056,0.0545,0.0537,0.0558,0.0549,0.0644,0.0644,0.0644,0.0644,0,0.022,0.0234,0.0264,0.0292,0.0306,0.0331,0.0377,0.0416,0.045,0.0538,0.0564,0.062,0.0679,0.0668,0.0729,0.0679,0.0691,0.067,0.0601,0.0594,0.053,0.0519,0.0636,0.0636,0.0636,0.0636,0.0636,0,0.0231,0.0251,0.0292,0.0319,0.0338,0.0379,0.0412,0.0441,0.0484,0.0596,0.0643,0.0728,0.0767,0.0802,0.0768,0.0718,0.0698,0.0662,0.0629,0.0558,0.0545,0.0534,0.0523,0.0626,0.0626,0.0626,0.0626,0,0.0255,0.0272,0.0297,0.035,0.0393,0.0439,0.0488,0.0529,0.0586,0.0662,0.0764,0.0812,0.0845,0.0824,0.0758,0.0715,0.0674,0.0656,0.0674,0.0628,0.055,0.0536,0.0526,0.0625,0.0625,0.0625,0.0625,0.0625,0.0275,0.0297,0.0333,0.0381,0.0428,0.0485,0.0528,0.0588,0.0663,0.0761,0.0814,0.0859,0.0854,0.0758,0.0716,0.0659,0.0668,0.0621,0.0621,0.0622,0.0619,0.0547,0.0614,0.0614,0.0614,0.0614,0.0614,0,0.0295,0.0319,0.0363,0.0413,0.0459,0.0489,0.0566,0.0605,0.0694,0.0766,0.0833,0.0788,0.0765,0.0725,0.0653,0.0614,0.0601,0.0578,0.0578,0.058,0.0582,0.0577,0.056,0.056,0.0559,0.0559,0,0,0.0305,0.0339,0.0354,0.0421,0.0465,0.0528,0.0575,0.0647,0.0687,0.0737,0.0748,0.0783,0.0753,0.0678,0.0648,0.0603,0.0585,0.0578,0.0629,0.0636,0.0637,0.0619,0.0616,0,0,0,0,0]}],[{"header":{"parameterUnit":"m.s-1","parameterCategory":2,"la1":30.2991,"la2":30.254,"lo1":-89.0895,"lo2":-89.0444,"dy":0.0017,"dx":0.0017,"nx":28,"ny":28,"refTime":"2023-09-23T03:00:00:Z","depth":"4","parameterNumber":2,"parameterNumberName":"U-component_of_CURRENTS"},"data":[0,0,0,0,0,0,0,0,0,0,0,0,0,0,0,0,0,0,0,0,0,0,0,0,0,0,0,0,0,0,0,0,0,0,0,0,0,0,0,0,0,0,0,0,0,0,0,0,0,0,0,0,0,0,0,0,0,0,0.0548,0.0547,0,0.0493,0.0492,0.0491,0.0499,0.05,0.0502,0.0503,0.0494,0.0492,0.0491,0,0,0,0,0,0,0,0,0,0,0,0,0,0.065,0.0648,0.0548,0.0547,0.0547,0.0493,0.0492,0.0491,0.0499,0.05,0.0502,0.0503,0.0494,0.0493,0.0491,0,0,0,0,0,0,0,0,0,0,0,0,0,0.0599,0.0647,0.0548,0.0546,0.0546,0.0493,0.0492,0.049,0.0499,0.05,0.0502,0.0504,0.0495,0.0493,0.0491,0.0443,0,0,0.0485,0.0484,0,0,0,0,0,0,0,0,0.0602,0.0595,0.0547,0.0547,0.0546,0.0507,0.0525,0.0478,0.0498,0.0514,0.0503,0.0505,0.0503,0.05,0.0482,0.0443,0.0442,0.0484,0.0483,0.0482,0.0482,0,0,0,0,0,0,0,0.0605,0.0597,0.0523,0.0547,0.0546,0.0545,0.054,0.0515,0.0498,0.0513,0.0514,0.0511,0.0503,0.0483,0.0482,0.0442,0.0485,0.0483,0.0482,0.0481,0.0494,0.0496,0,0,0,0,0,0,0.0615,0.06,0.0525,0.0522,0.0582,0.0542,0.0536,0.0515,0.0497,0.0496,0.051,0.0512,0.0486,0.0484,0.0481,0.0484,0.0482,0.0481,0.0479,0.0493,0.0495,0.0496,0,0,0,0,0,0,0.0617,0.0608,0.0527,0.0563,0.0553,0.0539,0.0516,0.0514,0.051,0.0495,0.0495,0.0512,0.0487,0.0484,0.0471,0.0482,0.048,0.0478,0.0491,0.0493,0.0496,0.045,0,0,0,0,0,0,0.062,0.0609,0.0606,0.0563,0.0552,0.0503,0.0514,0.0511,0.0506,0.0509,0.0496,0.0496,0.0488,0.0474,0.0469,0.0479,0.0476,0.0489,0.0492,0.0495,0.045,0.0451,0.0451,0,0,0,0,0,0.0624,0.0611,0.0606,0.0598,0.0545,0.0502,0.0496,0.0491,0.0505,0.0496,0.0493,0.0497,0.0492,0.0471,0.0466,0.0476,0.0488,0.0491,0.0495,0.0449,0.045,0.0451,0,0,0,0,0,0,0.0659,0.0609,0.0604,0.0578,0.0547,0.0505,0.0502,0.0494,0.048,0.0497,0.0484,0.0482,0.0484,0.0491,0.0469,0.0499,0.0503,0.0506,0.0471,0.0472,0.0473,0.0478,0.0475,0,0,0,0,0,0.0663,0.0637,0.0594,0.0575,0.0563,0.0533,0.0521,0.0515,0.0495,0.0491,0.0473,0.0482,0.0489,0.0488,0.0489,0.0478,0.0512,0.0497,0.0498,0.0498,0.0504,0.0585,0.0593,0.0508,0.0508,0.0508,0,0,0.0671,0.0643,0.0629,0.0581,0.0561,0.0528,0.053,0.0514,0.049,0.0492,0.0459,0.0472,0.0489,0.0486,0.0491,0.0492,0.0535,0.0503,0.0502,0.0508,0.0589,0.0597,0.0605,0.051,0.051,0.051,0,0,0.0668,0.065,0.0626,0.0595,0.0566,0.0542,0.054,0.0497,0.0487,0.046,0.047,0.0488,0.0474,0.0486,0.0495,0.0505,0.0537,0.0524,0.0521,0.0598,0.0605,0.0612,0.0632,0.0641,0.0524,0.0524,0.0524,0,0.0689,0.0639,0.0615,0.0581,0.0557,0.0548,0.0516,0.0494,0.0451,0.0456,0.0458,0.0474,0.0479,0.0492,0.0503,0.0503,0.0542,0.0502,0.0597,0.0604,0.0612,0.0631,0.0642,0.0522,0.0522,0.0522,0.0523,0,0.0648,0.062,0.0606,0.0553,0.0526,0.0501,0.0466,0.0454,0.0455,0.0446,0.046,0.0458,0.0487,0.0491,0.0493,0.055,0.0554,0.0583,0.0584,0.0617,0.0636,0.0647,0.052,0.052,0.0521,0.0521,0,0,0.0667,0.0592,0.0591,0.0562,0.0511,0.0483,0.0459,0.0438,0.0451,0.0432,0.0444,0.0455,0.0487,0.0503,0.0511,0.0559,0.0627,0.0595,0.06,0.0595,0.0769,0.0631,0.063,0.0682,0.0685,0.0687,0.0746,0,0.0648,0.0587,0.0548,0.0496,0.0461,0.0445,0.0421,0.0414,0.0423,0.0433,0.0461,0.0481,0.0481,0.0508,0.0557,0.0618,0.0663,0.0606,0.0755,0.0758,0.0617,0.0642,0.0695,0.0754,0.0757,0.0759,0.0761,0,0.0614,0.0579,0.0524,0.0471,0.0457,0.0439,0.0432,0.0401,0.0431,0.0449,0.0487,0.0513,0.056,0.0572,0.0683,0.0653,0.0717,0.0753,0.0758,0.0657,0.0643,0.0728,0.0782,0.078,0.0779,0.0777,0.0776,0,0.0624,0.056,0.052,0.0494,0.0437,0.044,0.0425,0.0436,0.043,0.0473,0.0514,0.0559,0.0608,0.0689,0.0754,0.0749,0.0876,0.0886,0.0807,0.0797,0.0922,0.0915,0.0989,0.0989,0.0989,0.0989,0.0989,0,0.0597,0.0569,0.0537,0.0511,0.0498,0.0454,0.0456,0.0463,0.0481,0.0487,0.0536,0.0558,0.0656,0.0724,0.0777,0.0807,0.0907,0.0803,0.0812,0.0896,0.0886,0.0928,0.092,0.0991,0.0991,0.099,0.099,0,0.0593,0.0565,0.0526,0.0496,0.0497,0.049,0.0475,0.0474,0.0507,0.0522,0.0543,0.0603,0.0665,0.0729,0.0849,0.083,0.0875,0.0871,0.0918,0.0929,0.0734,0.0723,0.078,0.0776,0.0772,0.0769,0.0767,0,0.0578,0.0557,0.0533,0.0524,0.0518,0.0507,0.0498,0.0498,0.0484,0.0527,0.0529,0.0608,0.0638,0.0695,0.0755,0.0808,0.0812,0.082,0.0796,0.0714,0.0718,0.0713,0.0707,0.0761,0.076,0.0759,0.0758,0,0.0556,0.0559,0.0527,0.0518,0.0515,0.0481,0.0471,0.0468,0.0449,0.0507,0.0515,0.0538,0.0589,0.0629,0.0673,0.0714,0.0799,0.0783,0.0791,0.0769,0.0692,0.0698,0.0697,0.0746,0.0748,0.0749,0.075,0,0.0556,0.0539,0.0509,0.0494,0.048,0.0439,0.0439,0.0412,0.0404,0.045,0.0448,0.0521,0.0579,0.058,0.0617,0.0632,0.0624,0.0612,0.0629,0.0643,0.0564,0.0445,0.0431,0,0,0,0,0,0.0547,0.0511,0.0484,0.0438,0.0416,0.0409,0.0394,0.0387,0.0401,0.0393,0.0414,0.0447,0.0472,0.0501,0.0491,0.0534,0.062,0.0514,0.0614,0.0678,0.0692,0.0608,0,0,0,0,0,0,0.0534,0.0504,0.0467,0.0386,0.0353,0.0311,0.0306,0.0319,0.0301,0.0344,0.0371,0.0405,0.045,0.0494,0.0487,0.0491,0.0536,0.0551,0.0548,0.067,0.0683,0.0694,0.0612,0,0,0,0,0]},{"header":{"parameterUnit":"m.s-1","parameterCategory":2,"la1":30.2991,"la2":30.254,"lo1":-89.0895,"lo2":-89.0444,"dy":0.0017,"dx":0.0017,"nx":28,"ny":28,"refTime":"2023-09-23T03:00:00:Z","depth":"4","parameterNumber":3,"parameterNumberName":"V-component_of_CURRENTS"},"data":[0,0,0,0,0,0,0,0,0,0,0,0,0,0,0,0,0,0,0,0,0,0,0,0,0,0,0,0,0,0,0,0,0,0,0,0,0,0,0,0,0,0,0,0,0,0,0,0,0,0,0,0,0,0,0,0,0,0,0.0114,0.0115,0,0.015,0.0151,0.0151,0.0153,0.0153,0.0152,0.0152,0.0187,0.0188,0.0189,0,0,0,0,0,0,0,0,0,0,0,0,0,0.0074,0.0075,0.0114,0.0115,0.0115,0.015,0.0151,0.0151,0.0153,0.0153,0.0152,0.0152,0.0186,0.0188,0.019,0,0,0,0,0,0,0,0,0,0,0,0,0,0.0099,0.0075,0.0114,0.012,0.0121,0.015,0.0151,0.0151,0.0153,0.0153,0.0152,0.0152,0.0186,0.0188,0.019,0.0214,0,0,0.0196,0.0197,0,0,0,0,0,0,0,0,0.0097,0.01,0.0119,0.012,0.0121,0.0147,0.0149,0.0172,0.0154,0.0141,0.0152,0.0151,0.0174,0.0177,0.0185,0.0216,0.0217,0.0196,0.0197,0.0198,0.0199,0,0,0,0,0,0,0,0.0096,0.0099,0.0128,0.0119,0.0121,0.0131,0.0133,0.0154,0.016,0.0142,0.0142,0.0147,0.0174,0.0183,0.0186,0.0218,0.0196,0.0198,0.0199,0.02,0.0266,0.0267,0,0,0,0,0,0,0.0091,0.0097,0.0127,0.013,0.0107,0.0132,0.0135,0.0139,0.016,0.0163,0.0147,0.0147,0.018,0.0183,0.0187,0.0233,0.0198,0.02,0.0201,0.0266,0.0267,0.0267,0,0,0,0,0,0,0.009,0.0093,0.0126,0.0114,0.0119,0.0133,0.0138,0.014,0.0149,0.0164,0.0167,0.0154,0.018,0.0184,0.0213,0.0234,0.0201,0.0202,0.0265,0.0266,0.0267,0.0316,0,0,0,0,0,0,0.0088,0.0092,0.0097,0.0114,0.0119,0.0144,0.0139,0.0141,0.0152,0.0152,0.0171,0.0173,0.0179,0.021,0.0215,0.0236,0.0204,0.0264,0.0266,0.0267,0.0314,0.0319,0.0323,0,0,0,0,0,0.0087,0.0094,0.0097,0.01,0.0124,0.0144,0.0148,0.0156,0.0153,0.0161,0.0177,0.0173,0.022,0.0213,0.0218,0.024,0.0264,0.0265,0.0267,0.0312,0.0318,0.0323,0,0,0,0,0,0,0.0079,0.0095,0.0098,0.011,0.0126,0.0144,0.0153,0.0159,0.0178,0.0178,0.0189,0.0193,0.0223,0.0224,0.0215,0.026,0.0238,0.0241,0.027,0.0276,0.0281,0.0279,0.0206,0,0,0,0,0,0.0079,0.0088,0.0106,0.0116,0.0124,0.014,0.0149,0.0155,0.0173,0.018,0.0196,0.0212,0.0234,0.0248,0.0262,0.0295,0.0275,0.0308,0.0313,0.0317,0.0318,0.0289,0.029,0.0272,0.0272,0.0272,0,0,0.0079,0.009,0.0095,0.0115,0.0128,0.0151,0.0144,0.016,0.0187,0.0183,0.0223,0.0229,0.0244,0.0279,0.0292,0.0283,0.0317,0.0318,0.0322,0.0321,0.029,0.0292,0.0293,0.0273,0.0272,0.0272,0,0,0.0086,0.0093,0.0104,0.0121,0.0142,0.0157,0.0162,0.0185,0.0202,0.024,0.0242,0.0258,0.0298,0.031,0.0322,0.0359,0.0339,0.0364,0.0394,0.0366,0.0367,0.0368,0.0367,0.0367,0.037,0.037,0.037,0,0.0085,0.0105,0.0111,0.0131,0.0152,0.0161,0.0187,0.0211,0.0242,0.026,0.0257,0.0299,0.0312,0.0349,0.0368,0.037,0.0357,0.0376,0.0372,0.0372,0.0371,0.037,0.037,0.0373,0.0373,0.0372,0.0372,0,0.0104,0.0123,0.0133,0.0164,0.0187,0.0209,0.0242,0.0267,0.0288,0.0307,0.0341,0.0352,0.0372,0.0383,0.0397,0.041,0.0405,0.0377,0.0358,0.0376,0.0374,0.0373,0.0376,0.0376,0.0375,0.0374,0,0,0.0098,0.0138,0.0143,0.0168,0.0208,0.023,0.0278,0.0322,0.0347,0.0373,0.0398,0.044,0.0428,0.044,0.0443,0.0433,0.0436,0.0416,0.0413,0.0416,0.0394,0.0395,0.0393,0.0405,0.0405,0.0404,0.0401,0,0.0114,0.0153,0.0175,0.0227,0.0252,0.0285,0.0329,0.0368,0.0394,0.0419,0.0429,0.045,0.0456,0.046,0.0454,0.0435,0.0431,0.0441,0.0375,0.0374,0.0371,0.039,0.0403,0.04,0.0399,0.0399,0.0399,0,0.0132,0.0157,0.0202,0.0261,0.0276,0.0308,0.037,0.0413,0.0448,0.0462,0.0474,0.0473,0.0486,0.0466,0.0449,0.0455,0.0435,0.0416,0.0414,0.0393,0.037,0.0371,0.0396,0.0396,0.0396,0.0396,0.0397,0,0.0127,0.0182,0.022,0.024,0.0302,0.0333,0.0372,0.0419,0.0458,0.0479,0.0488,0.049,0.049,0.0459,0.0448,0.0441,0.0411,0.0386,0.0372,0.0372,0.035,0.0349,0.036,0.036,0.036,0.036,0.036,0,0.0141,0.0174,0.0217,0.0239,0.029,0.0335,0.0387,0.0422,0.046,0.0494,0.0503,0.0509,0.0485,0.0474,0.0447,0.0418,0.0409,0.0384,0.0367,0.0375,0.0377,0.035,0.0349,0.036,0.036,0.036,0.036,0,0.0137,0.0164,0.0209,0.0266,0.0288,0.0325,0.0399,0.0431,0.0468,0.0505,0.0512,0.0526,0.0513,0.0498,0.045,0.0424,0.0385,0.0375,0.0414,0.0398,0.0367,0.0369,0.0351,0.0351,0.0351,0.0351,0.0351,0,0.0142,0.0161,0.0218,0.0242,0.027,0.0327,0.0365,0.0425,0.0457,0.0512,0.0521,0.0531,0.0534,0.048,0.0451,0.0407,0.0395,0.0378,0.0354,0.0379,0.0364,0.0366,0.0368,0.0351,0.0351,0.0351,0.0351,0,0.0148,0.0162,0.0194,0.0235,0.0274,0.033,0.0386,0.0409,0.0478,0.0506,0.0526,0.0517,0.0508,0.0472,0.0455,0.0414,0.0385,0.0377,0.0376,0.0353,0.0378,0.0364,0.0366,0.035,0.035,0.035,0.035,0,0.015,0.0162,0.0193,0.0234,0.0276,0.0322,0.036,0.0406,0.0449,0.0509,0.0506,0.051,0.0516,0.0476,0.0448,0.0424,0.0403,0.0373,0.0372,0.0372,0.0376,0.0411,0.0384,0,0,0,0,0,0.0153,0.0163,0.0194,0.0237,0.0275,0.0308,0.037,0.0407,0.046,0.0472,0.0498,0.0491,0.0466,0.0454,0.0429,0.0433,0.0393,0.0399,0.0356,0.0349,0.0349,0.035,0,0,0,0,0,0,0.0153,0.0174,0.0186,0.0226,0.0258,0.031,0.0351,0.0393,0.0408,0.0452,0.044,0.046,0.0437,0.0478,0.0419,0.0415,0.0377,0.0399,0.0398,0.0348,0.0349,0.0349,0.035,0,0,0,0,0]}]]